Location: Newark
(39.2833°N, 16.3333°E)
Time: 13:48:15
(UTC+00:00)

Envisat - Pass Details

Date: 28 October 2019
Orbit: 764 x 766 km, 98.1° (Epoch: 20 November)

Event Time Altitude Azimuth Distance (km) Brightness Sun altitude
Rises 17:30:02 0° 183° (S) 3,217 6.3 -18.2°
Reaches altitude 10° 17:32:26 10° 190° (S) 2,295 5.6 -18.7°
Maximum altitude 17:37:14 43° 262° (W) 1,066 4.2 -19.6°
Drops below altitude 10° 17:42:05 10° 333° (NNW) 2,310 5.8 -20.5°
Sets 17:44:31 0° 340° (NNW) 3,240 6.5 -21.0°
